RH
28 28 28 28 28 26 24 22 21 20 19 16 14 10 7 9 10 11 8 6 6 5 5 5 5 6 6 6 6 4 3 3 2 4 5 8 16 15 10 7 5 6 9 9 7 24 42 40 42 43 39 39 40 42 40 38 40 37 49 67 62 64 76 68 60 56 60 68 71 74 68 64 71 68 59 51 46 45 43 39 36 33 31 35 40 44 47 50
27 28 28 28 29 28 27 25 22 20 19 17 14 11 8 7 10 11 9 7 6 5 6 5 6 6 5 6 5 5 3 3 3 4 8 12 11 6 3 3 2 6 9 7 10 27 40 37 34 33 34 37 37 38 37 37 39 39 43 49 54 64 67 63 60 55 59 65 69 72 65 61 65 62 55 51 50 46 43 37 32 32 35 40 42 44 48 51
27 27 27 27 28 28 28 27 25 20 18 16 13 11 8 7 9 11 10 7 6 6 6 5 6 5 6 6 5 6 3 7 15 16 20 19 11 3 2 2 1 6 8 8 15 29 37 34 27 25 30 34 33 33 33 35 37 38 42 48 54 56 58 61 60 59 63 66 71 73 67 62 61 58 54 52 51 46 41 34 31 35 39 42 43 45 48 51
27 26 26 27 27 28 28 28 26 20 17 15 13 11 8 7 9 11 9 7 7 7 6 7 6 5 6 5 5 5 5 16 30 36 32 21 10 3 1 1 1 6 7 11 22 31 34 33 26 21 24 29 30 29 30 33 36 38 45 55 55 51 61 69 64 67 71 72 73 71 66 63 59 56 54 52 51 48 40 33 33 37 40 42 44 46 48 50
26 26 26 26 27 29 28 27 24 18 15 13 12 10 8 8 10 10 8 6 7 6 7 7 5 7 5 5 6 3 11 23 30 40 33 20 13 4 2 1 2 7 7 17 29 31 32 31 26 20 20 25 28 27 29 31 33 41 49 55 56 56 70 79 77 78 76 75 75 69 62 59 57 56 54 50 51 48 38 34 36 38 41 42 44 44 47 49
25 25 25 26 28 28 25 21 19 16 13 12 10 9 8 9 10 9 7 6 8 9 10 9 6 6 4 5 4 2 18 24 22 34 26 16 15 4 2 1 3 8 8 23 32 28 30 29 25 19 18 21 24 26 29 31 30 41 50 53 58 59 69 81 81 80 78 77 75 66 56 53 53 53 49 46 47 46 40 37 36 38 41 42 44 43 44 47
25 25 25 26 28 25 20 16 14 13 11 10 9 8 9 10 9 7 7 10 14 16 16 14 9 5 4 5 4 11 28 27 26 32 16 11 14 3 2 1 4 9 11 26 29 25 28 26 24 18 16 19 21 24 28 30 28 39 51 52 57 58 65 77 74 73 77 77 74 63 52 49 51 49 45 44 45 45 42 38 35 38 41 41 42 42 43 45
25 25 24 27 27 21 16 13 13 12 10 9 8 9 10 9 8 8 14 19 22 24 21 19 12 5 5 2 11 29 32 27 33 32 13 10 12 3 2 1 5 8 15 29 27 23 24 24 22 16 16 18 19 24 27 30 26 35 52 55 59 60 64 71 68 71 75 75 73 60 50 51 54 50 46 45 43 43 41 37 36 38 40 41 40 40 42 43
26 25 25 27 26 22 16 13 12 10 10 9 9 10 9 8 9 15 22 22 24 23 19 19 13 7 4 3 22 35 25 22 32 32 17 9 10 5 1 2 5 9 20 31 27 22 21 21 19 15 16 15 18 22 24 30 27 32 47 57 68 69 70 72 71 79 80 77 71 59 57 62 60 54 50 46 42 40 40 36 35 37 37 38 38 39 40 40
26 24 25 26 26 26 22 18 16 14 12 10 9 8 7 8 13 21 23 22 24 22 20 19 13 9 6 13 32 30 18 22 26 32 27 12 10 6 1 6 8 13 24 27 23 19 19 20 16 14 15 14 19 21 24 27 23 31 43 57 72 69 66 70 76 86 83 77 71 62 66 69 63 58 53 46 41 39 38 36 35 36 35 35 36 37 38 38
26 24 25 26 26 27 27 25 24 23 22 18 16 11 10 14 21 26 24 23 24 25 25 19 15 11 4 20 39 23 13 21 22 29 29 15 11 6 4 11 10 14 23 21 18 16 16 18 14 13 13 16 20 20 26 23 18 34 46 61 76 69 66 69 74 81 76 75 73 65 66 69 64 59 53 44 41 39 36 35 34 34 33 33 35 36 37 37
26 24 24 26 26 26 27 26 26 26 25 24 22 19 19 21 24 26 26 26 24 27 27 21 17 9 7 29 37 19 11 19 22 25 23 17 16 12 10 14 10 11 18 18 15 12 12 14 13 13 13 16 20 21 26 21 22 43 55 72 86 79 77 77 73 71 68 72 74 67 64 68 64 56 50 44 40 38 35 35 34 33 33 33 34 36 36 37
25 23 24 26 26 25 26 25 24 24 23 22 22 22 21 20 21 21 23 24 24 27 25 21 15 9 26 40 23 12 15 19 23 22 19 19 18 16 16 15 11 10 15 16 15 12 11 12 12 13 13 14 17 21 25 20 23 40 52 68 83 85 83 80 75 69 66 71 73 71 69 68 66 57 49 45 42 37 34 34 33 33 33 33 35 36 36 37
25 23 22 26 26 24 26 25 24 24 24 24 22 20 20 18 17 15 16 18 21 26 24 20 10 13 45 43 13 10 15 17 21 19 17 16 14 14 15 14 11 11 14 15 15 14 11 12 13 13 13 15 16 18 23 21 18 27 39 47 58 73 80 78 75 72 71 73 74 73 72 70 67 58 50 47 44 38 34 33 33 34 33 34 36 35 37 38
24 24 22 25 26 24 26 26 26 26 26 25 23 22 21 19 17 16 17 17 21 22 19 22 14 22 48 36 12 11 11 16 20 16 15 13 11 11 12 13 13 15 16 15 15 13 12 13 13 13 12 14 16 18 22 21 18 21 34 41 40 56 79 84 77 74 71 72 75 72 68 70 68 59 52 50 46 38 34 34 32 33 34 34 35 34 36 38
22 24 22 24 25 24 25 27 27 27 26 25 23 24 23 19 18 20 19 17 21 17 16 33 35 37 43 23 11 15 16 20 18 16 16 12 11 11 11 13 13 15 15 15 14 12 13 13 12 12 11 12 15 19 23 23 21 18 24 34 35 49 77 86 80 76 69 70 82 78 69 72 70 60 53 49 46 40 34 34 33 33 34 34 34 33 35 37
19 23 22 22 25 25 24 25 27 26 25 23 23 25 26 23 20 22 21 17 20 15 13 32 41 40 33 13 11 20 22 22 16 16 16 14 15 11 10 12 11 13 13 13 13 11 12 11 10 10 9 11 12 18 27 29 24 18 17 21 27 42 61 71 80 82 71 70 79 77 70 70 66 59 55 51 46 41 35 34 33 33 35 33 32 33 34 34
17 22 23 21 24 24 24 24 24 25 23 22 24 25 28 28 21 20 24 22 26 25 16 26 37 35 23 10 13 19 19 19 17 16 15 16 16 12 9 9 9 11 11 11 10 9 10 8 8 8 8 10 11 16 26 29 21 15 17 21 26 37 49 59 71 73 67 69 73 72 69 67 66 61 58 55 49 44 37 35 35 34 35 34 31 33 33 32
16 19 22 22 24 24 24 23 23 24 21 20 24 25 33 39 31 24 24 31 43 37 20 24 32 25 15 11 13 16 16 18 19 17 15 16 16 13 10 8 8 8 8 8 8 8 9 8 7 8 10 10 10 14 19 21 17 14 15 20 25 34 47 55 58 58 61 70 69 67 69 69 71 68 62 58 53 48 40 34 36 34 33 33 31 32 33 31
16 17 20 21 23 24 24 23 24 24 19 21 24 29 38 41 35 30 29 40 47 29 11 14 17 13 12 13 13 14 15 17 18 17 17 17 15 14 12 10 8 7 6 6 7 8 7 8 8 8 9 9 9 11 15 17 16 15 13 16 22 28 38 44 53 62 62 65 64 63 72 75 72 73 72 64 57 55 48 37 36 36 33 33 32 32 33 31
16 16 18 20 22 24 25 24 25 21 19 21 24 32 36 25 21 24 25 31 29 16 10 11 10 11 12 12 12 12 13 14 16 18 18 16 15 14 13 12 8 6 6 5 5 7 8 8 7 6 7 7 8 9 13 15 16 16 12 15 23 28 30 33 53 76 72 67 69 66 76 82 71 71 78 76 64 58 53 41 35 36 35 33 31 32 34 32
15 15 17 20 21 23 24 23 22 19 18 20 24 33 30 17 17 22 22 21 14 11 13 11 11 12 11 11 11 11 14 14 14 18 18 15 14 13 11 10 9 7 4 4 5 7 8 9 6 5 5 6 8 8 11 14 15 16 14 15 20 24 29 33 49 75 76 68 72 70 77 86 75 67 77 85 78 66 62 53 42 36 35 35 32 33 36 34
14 15 16 19 20 21 22 20 19 19 21 22 26 29 23 17 21 23 24 22 15 10 11 10 11 12 12 12 10 10 14 14 14 17 15 14 13 12 10 9 9 9 5 3 5 7 9 8 6 4 5 5 7 7 10 14 15 15 16 14 17 20 29 36 45 63 67 60 65 70 79 88 81 75 79 85 87 83 80 75 60 46 39 36 34 34 36 36
13 15 15 18 19 20 20 19 18 21 23 25 27 26 20 19 22 23 24 23 16 10 9 10 10 11 11 9 10 12 14 15 14 15 14 14 13 11 9 9 9 9 7 4 3 6 7 6 5 4 5 5 6 7 11 16 16 15 16 14 16 19 24 33 41 55 60 54 57 68 86 95 87 87 87 83 89 90 87 83 72 60 51 42 36 35 36 36
12 14 14 17 19 19 19 21 22 23 24 25 26 23 19 20 23 25 26 25 18 11 10 11 10 12 11 10 12 13 14 13 13 15 15 13 12 11 9 8 9 8 7 6 4 4 5 5 5 4 5 5 5 8 11 15 16 15 15 13 12 15 22 32 39 50 59 59 56 62 85 95 87 87 84 81 91 92 87 85 76 68 64 50 38 37 37 37
11 14 14 16 18 17 19 23 26 24 21 20 20 19 19 21 24 25 26 26 17 9 11 11 9 10 11 12 12 12 13 11 11 14 14 12 13 13 12 9 8 8 7 6 4 4 4 4 5 4 5 5 5 8 11 13 16 16 13 10 10 10 20 31 35 44 54 56 51 50 66 87 94 89 77 80 94 93 89 88 79 71 70 58 42 38 39 38
11 13 13 15 17 16 17 22 24 22 20 17 17 18 19 23 24 24 29 27 15 8 9 8 7 9 9 10 10 12 15 12 12 12 9 11 13 13 14 10 8 8 7 7 7 7 5 4 5 6 7 7 6 8 12 13 17 17 10 8 11 9 12 18 22 29 34 37 48 53 53 67 84 78 68 77 92 92 91 90 85 77 72 65 49 39 39 38
11 13 13 14 15 15 17 20 21 22 21 17 18 20 20 23 24 23 31 29 13 6 7 6 7 8 7 9 8 10 14 13 13 12 9 11 12 12 13 11 8 8 7 9 9 6 4 4 6 7 9 11 10 11 13 13 15 15 10 9 10 9 10 11 13 17 18 24 47 57 45 48 67 70 67 79 89 91 92 90 89 83 74 70 59 44 38 39
11 12 12 13 15 16 19 19 19 21 21 18 21 21 20 23 23 23 31 28 11 6 8 6 7 8 6 7 7 7 10 11 12 14 13 12 11 11 13 12 10 8 7 8 8 6 4 5 7 10 11 12 12 12 12 12 13 12 10 10 10 9 9 9 10 13 14 21 32 36 29 38 68 83 81 89 92 88 90 91 89 84 76 70 63 50 41 39
11 11 11 12 14 17 21 24 22 21 21 21 23 22 22 21 21 28 32 21 8 7 7 6 7 7 6 6 6 7 8 9 10 12 13 12 12 11 12 13 10 9 8 8 8 7 6 6 7 9 11 10 10 10 9 10 12 11 10 11 11 11 10 10 12 11 17 25 23 20 20 28 59 83 83 85 83 75 81 92 91 86 79 69 63 59 48 41
10 11 11 12 14 16 22 26 24 23 24 24 23 22 22 19 21 32 27 11 7 8 6 7 6 5 6 6 6 6 6 6 8 11 13 12 12 10 11 13 11 10 11 10 10 9 8 8 8 8 9 8 8 8 7 8 9 10 12 13 14 15 14 14 15 14 20 25 19 18 20 21 42 67 73 70 65 60 68 82 87 86 82 72 66 63 54 46
9 10 10 11 13 15 19 21 22 25 26 25 24 22 22 24 26 27 17 7 10 10 5 6 6 4 5 5 6 6 6 6 7 10 12 12 12 10 10 12 13 13 14 12 11 9 8 8 8 10 10 8 9 8 8 9 9 10 12 15 18 19 19 19 19 19 20 20 17 17 21 26 39 53 59 60 56 53 57 65 73 76 75 74 71 66 61 55
9 10 10 10 13 16 17 18 22 27 25 24 24 20 21 30 28 15 7 7 9 8 6 6 5 5 6 6 7 6 6 7 6 7 10 11 12 11 10 10 11 13 16 13 11 9 10 9 9 11 10 8 9 9 9 9 9 11 13 17 20 21 23 23 20 19 19 16 15 16 21 38 52 50 46 49 48 48 51 55 61 62 64 71 72 68 67 60
9 9 10 10 12 16 16 16 20 24 25 24 22 18 23 30 22 8 7 7 6 6 6 5 5 6 6 7 7 6 6 8 6 6 9 10 12 14 12 10 10 11 13 14 13 10 11 12 11 11 10 8 9 9 9 8 7 10 10 13 17 17 20 21 17 18 18 15 14 16 23 39 54 52 42 39 39 41 46 49 54 57 59 65 67 65 67 63
9 10 11 10 14 17 16 16 18 23 26 24 19 20 25 23 13 8 9 6 5 6 5 5 6 7 7 7 6 6 7 10 9 7 9 10 13 14 12 11 10 9 11 16 17 13 12 12 8 9 9 7 9 9 8 8 8 9 9 12 15 12 13 16 15 14 14 16 15 17 29 39 43 45 40 37 36 34 39 46 51 56 60 64 63 59 61 64
13 13 9 11 19 22 22 21 22 26 27 21 21 23 21 15 9 8 8 6 6 6 5 7 8 8 9 8 8 8 8 10 10 9 11 12 12 12 12 11 9 9 11 14 16 15 16 14 7 8 9 6 9 8 7 9 9 8 9 12 12 9 9 12 14 13 13 19 17 15 35 47 42 41 41 39 40 36 37 46 51 53 56 61 61 56 53 58
22 24 16 17 23 22 22 22 22 25 23 19 24 25 13 8 8 7 6 6 5 5 6 10 10 9 10 10 10 9 9 10 11 11 13 13 12 12 10 10 9 9 9 10 14 14 16 16 10 8 9 8 7 7 7 7 7 8 8 8 8 6 8 10 14 16 14 18 16 13 34 50 47 49 46 39 41 40 39 45 52 55 54 53 57 56 51 54
27 34 25 20 21 18 18 20 21 23 20 18 25 23 10 6 8 6 6 6 5 6 8 10 11 9 9 10 11 9 9 12 13 14 15 14 13 12 10 10 9 8 7 9 13 12 13 17 13 8 9 8 6 8 9 6 5 7 7 6 6 7 10 11 13 16 14 17 17 11 24 40 42 44 45 42 42 42 40 42 48 55 54 51 54 57 56 58
23 33 27 18 16 16 16 19 20 20 18 18 21 17 8 7 7 5 6 5 5 7 8 10 9 8 8 9 10 9 9 11 12 14 16 15 13 11 9 10 9 9 8 8 11 10 11 18 18 12 8 8 8 9 11 8 5 6 6 7 7 7 9 9 11 14 13 17 18 13 22 40 45 42 40 40 39 40 47 50 51 56 56 54 54 58 62 61
21 26 23 16 15 15 16 19 19 17 18 18 16 11 7 7 7 6 6 5 6 7 7 9 8 8 9 9 8 9 9 9 11 13 15 13 13 11 9 10 9 9 8 7 9 9 10 16 19 15 9 9 10 10 10 8 6 7 8 9 8 6 6 7 8 9 10 15 17 18 35 54 58 53 47 43 43 50 56 57 59 64 62 59 56 56 61 61
30 24 19 16 15 15 15 17 16 15 17 15 10 7 7 8 7 6 6 5 5 6 6 7 8 8 10 9 9 9 9 9 10 11 12 11 12 12 10 10 9 9 9 9 8 10 12 15 19 19 15 13 11 9 9 7 5 6 7 8 9 6 7 10 10 8 6 11 12 15 40 62 62 58 56 54 59 65 65 60 63 67 64 62 61 57 58 62
33 25 18 16 14 13 13 14 14 12 12 11 8 6 7 8 6 5 6 5 5 5 6 7 7 8 9 9 10 9 8 9 9 9 10 10 10 11 10 9 9 8 9 9 9 12 15 14 17 20 18 15 14 12 10 7 6 6 5 7 8 7 9 9 11 11 6 9 10 6 28 57 65 66 64 59 61 64 63 64 64 64 65 65 64 60 59 64
27 22 17 16 15 13 12 15 15 9 6 8 8 7 6 6 5 5 5 6 6 6 6 7 7 9 10 9 10 10 9 10 10 9 10 9 9 9 9 9 9 8 8 10 12 13 15 15 18 21 19 16 14 12 11 8 6 6 5 6 5 6 8 6 8 11 7 10 11 4 21 53 67 72 72 67 70 70 65 68 68 67 72 69 63 64 66 68
25 22 18 16 16 13 11 15 16 11 8 9 8 6 6 5 5 6 7 7 7 7 8 9 8 8 9 8 9 11 10 12 14 12 10 10 10 10 9 9 8 8 9 13 15 13 14 18 21 25 27 27 23 18 15 11 7 7 7 6 6 5 5 6 7 9 10 11 8 10 36 65 69 70 74 73 78 78 70 71 75 76 76 69 65 71 76 77
27 24 17 13 12 12 12 13 13 13 11 9 8 7 6 6 6 7 8 7 7 7 8 10 9 8 8 8 9 11 10 11 16 16 11 9 10 9 10 10 9 9 12 15 15 11 13 17 20 27 36 43 43 35 28 21 13 10 8 7 8 6 5 9 9 10 15 14 12 23 48 65 64 63 67 68 74 82 81 76 80 83 79 71 70 76 83 88
28 22 14 10 9 9 11 12 10 10 9 8 9 8 6 7 8 7 6 6 7 7 7 9 8 8 9 9 10 13 11 10 14 16 15 17 16 10 10 11 9 11 14 14 13 11 13 16 18 23 30 36 39 33 27 23 16 12 11 10 11 9 10 13 12 17 22 18 22 38 48 54 58 58 59 60 64 77 87 84 82 86 87 82 81 82 86 93
25 21 14 12 12 9 8 9 7 7 8 8 9 8 6 7 8 7 5 6 8 8 8 8 7 9 12 11 13 18 16 12 15 16 17 21 17 11 12 12 9 12 15 13 12 13 15 16 16 18 20 21 23 21 20 19 16 15 14 14 16 14 14 17 15 17 21 20 27 40 45 48 51 48 50 55 55 62 77 85 81 82 88 88 84 85 89 93
20 19 16 12 13 10 8 9 8 7 6 7 8 9 8 8 8 8 7 6 8 7 7 10 10 9 10 10 13 20 20 18 21 22 19 18 16 14 14 13 13 15 13 11 11 12 15 18 16 14 15 14 14 15 16 16 16 15 15 15 17 16 15 18 17 14 17 21 23 27 37 48 46 39 42 47 49 54 67 79 80 79 86 87 83 87 94 95
22 21 22 18 15 11 9 10 8 7 7 7 10 9 8 8 8 8 8 7 8 7 7 12 13 10 10 10 11 16 20 20 23 25 22 19 17 18 19 20 21 18 13 11 13 13 17 20 16 14 15 15 13 13 14 16 17 15 15 15 15 16 17 17 17 17 17 21 20 17 32 52 51 44 44 45 50 59 65 73 76 74 83 90 88 90 95 97
31 32 34 33 24 14 11 11 8 9 9 9 11 10 8 9 8 8 9 7 9 12 10 10 12 10 9 11 11 14 17 19 21 22 20 19 18 19 22 23 22 17 13 13 14 15 19 19 16 15 17 16 15 14 14 16 18 17 17 17 14 15 16 15 21 27 27 29 27 20 34 59 62 51 48 49 55 61 63 68 72 72 80 89 93 94 97 97
37 40 40 36 29 19 12 12 10 9 10 10 10 10 9 9 9 9 9 6 7 13 11 9 11 11 9 10 12 13 14 14 15 15 14 14 15 16 17 16 14 13 13 14 16 16 18 19 18 18 20 19 15 14 15 14 16 18 18 19 20 20 15 16 29 43 44 43 38 30 38 60 64 55 51 51 54 62 67 71 76 79 82 87 92 97 98 96
45 44 45 36 29 22 13 11 12 9 10 10 9 10 10 9 8 8 10 10 8 9 10 10 11 11 12 13 13 12 12 11 11 11 10 10 10 10 10 10 10 10 11 13 15 15 18 21 21 20 23 22 15 13 15 15 18 25 25 23 26 27 21 20 33 45 48 48 48 49 53 58 57 56 56 56 64 78 84 84 85 85 82 82 88 94 94 93
Wind_Speed
14 14 14 15 15 16 15 15 14 13 12 11 10 8 7 6 7 8 8 8 8 8 7 8 8 8 8 8 8 7 7 7 7 8 11 7 7 13 13 12 10 9 9 8 8 9 11 12 12 11 11 12 12 10 9 7 8 8 2 2 3 3 1 4 5 5 8 11 11 11 11 10 11 11 11 11 12 13 13 13 16 19 21 23 26 29 27 25
14 14 14 15 15 16 16 16 15 14 12 11 10 8 7 6 6 7 7 7 7 8 8 8 8 8 9 9 8 8 7 7 9 11 11 9 9 12 12 12 11 10 9 7 9 11 11 10 9 10 10 11 10 8 6 4 5 5 4 4 3 3 2 5 6 9 11 14 13 11 12 11 12 14 13 12 12 13 11 13 20 23 25 27 29 28 26 25
14 15 15 15 15 16 16 16 16 14 13 11 10 8 6 5 5 7 7 7 7 8 9 9 9 9 9 9 8 8 8 8 11 11 8 7 8 10 9 10 11 9 9 7 9 11 11 10 8 8 10 11 9 7 5 2 3 4 5 4 3 2 3 2 5 12 15 16 15 10 12 12 13 14 13 12 13 13 10 13 20 26 29 29 28 27 26 24
13 14 15 15 15 16 16 16 15 14 13 11 10 8 6 5 5 6 6 7 8 8 9 9 9 9 9 9 8 8 10 10 6 2 3 4 6 8 8 8 10 9 8 8 9 12 12 12 11 9 11 11 10 9 6 3 2 3 4 5 6 4 2 3 4 12 16 16 14 11 11 11 13 12 12 14 12 9 10 16 22 27 30 30 29 27 25 24
13 14 15 15 16 16 16 14 14 13 12 11 9 7 6 5 5 6 6 6 7 8 8 8 9 8 8 8 8 8 8 5 2 3 5 7 8 7 8 8 8 9 8 10 9 13 12 13 12 11 10 10 10 7 4 5 3 2 4 7 9 6 6 7 8 13 15 14 12 11 11 12 12 10 13 14 9 7 11 18 24 27 30 30 29 27 25 24
12 14 15 16 16 16 16 14 13 12 11 10 9 7 7 6 6 6 5 6 6 7 8 9 9 8 8 7 8 6 5 3 3 2 7 8 8 6 7 8 8 10 10 10 10 13 12 13 12 12 10 9 9 6 3 4 3 1 3 7 9 9 11 12 13 14 11 11 11 8 10 14 13 10 13 12 10 12 13 18 24 26 28 28 27 26 25 23
13 14 15 16 17 16 15 13 12 11 10 9 9 8 7 7 6 6 5 5 6 7 8 9 9 7 7 6 7 6 9 7 2 2 7 9 5 5 8 9 9 11 12 11 12 12 12 12 12 11 10 9 6 4 4 6 5 1 5 7 9 13 18 17 15 14 9 10 11 8 11 14 13 11 12 12 13 16 15 18 24 25 26 26 25 25 24 22
13 14 15 16 16 16 15 13 12 11 10 10 9 8 8 7 6 6 6 6 7 8 9 10 9 7 6 5 5 8 11 6 4 5 9 10 6 4 8 9 11 11 13 12 12 12 12 12 14 12 10 8 4 2 3 6 6 2 8 8 10 14 17 17 15 13 9 9 8 9 12 13 12 12 12 13 14 17 19 20 24 26 25 24 24 24 23 22
12 13 15 15 15 15 15 14 13 12 12 11 10 9 8 7 6 6 6 7 8 8 9 11 10 8 6 4 5 8 4 3 5 8 10 9 6 5 7 9 11 12 12 12 12 13 13 12 13 12 10 11 10 5 4 6 5 5 10 10 12 13 12 12 13 10 6 5 4 9 12 11 12 13 12 13 14 18 21 22 24 25 25 23 23 23 23 22
12 13 14 14 13 14 14 14 14 13 13 12 11 10 8 7 6 7 7 8 9 9 10 11 10 8 7 5 7 6 3 5 4 4 7 7 5 5 8 9 11 12 11 11 12 14 14 13 11 10 12 12 11 7 4 7 2 10 14 14 15 14 11 9 11 8 4 4 4 9 11 9 8 6 8 12 15 20 22 23 24 24 24 22 22 22 21 21
11 12 13 12 12 13 13 13 13 13 13 13 12 10 9 7 7 8 8 7 9 11 12 13 11 9 6 5 10 5 4 3 4 1 3 3 2 4 8 9 11 12 11 11 12 13 14 14 11 10 9 6 8 7 5 10 3 14 17 17 13 9 9 8 9 8 5 3 3 9 11 8 4 3 9 15 17 20 23 24 24 23 23 22 22 21 20 19
10 11 12 11 11 12 12 12 12 13 13 12 11 10 9 8 9 9 9 9 10 12 13 13 11 9 7 7 11 5 4 3 2 0 3 3 3 5 7 9 11 13 11 11 11 11 13 14 12 12 10 7 7 3 3 11 1 22 21 12 8 6 4 2 3 5 3 3 5 8 10 6 3 7 14 16 17 20 23 23 23 22 22 21 21 20 19 19
9 10 10 10 10 11 11 11 12 12 12 12 11 10 9 9 9 10 10 10 10 12 13 12 10 7 7 7 4 3 3 2 1 2 3 5 5 6 7 9 11 13 11 11 10 10 12 13 12 13 14 12 8 4 5 10 4 21 20 10 7 4 2 4 3 5 4 4 8 5 4 5 6 10 15 15 16 20 22 23 22 22 21 21 21 19 18 19
9 9 9 9 9 10 10 10 11 12 12 12 11 10 9 9 9 9 9 10 10 11 11 9 7 4 6 6 4 5 3 2 2 4 4 5 6 6 8 9 11 11 11 11 10 9 11 10 12 13 13 14 12 10 7 8 7 8 13 10 8 4 4 5 4 6 5 4 7 2 1 5 7 11 15 15 16 19 21 22 22 21 21 21 20 19 19 19
8 8 9 7 7 8 9 9 10 11 12 13 12 10 9 9 8 7 7 8 9 9 7 5 5 5 7 6 2 5 3 5 5 5 4 5 5 6 8 9 11 9 9 9 8 8 9 8 11 12 12 14 13 11 7 7 7 6 8 6 6 4 5 4 5 5 5 4 5 2 2 6 7 12 16 15 16 18 20 22 22 22 21 21 20 20 19 19
7 7 8 7 6 7 8 9 9 11 13 12 11 10 9 7 6 7 8 7 7 7 3 2 5 8 9 3 1 2 3 6 6 5 4 5 4 5 8 8 10 9 9 9 6 5 7 8 11 13 13 11 10 9 6 6 8 8 7 6 6 6 7 6 5 6 5 4 4 4 3 5 6 13 17 16 16 17 19 21 21 21 21 21 20 20 20 20
7 6 7 6 5 5 7 8 10 12 12 11 10 10 9 6 4 6 6 6 7 5 2 2 2 8 8 3 2 3 3 4 4 5 5 4 4 4 7 8 9 9 9 9 7 6 8 10 10 11 11 10 8 8 6 7 7 7 8 5 5 7 9 7 5 8 10 7 7 6 5 5 7 13 17 18 17 17 18 20 20 21 21 21 20 20 20 20
7 5 6 6 6 5 6 8 10 12 12 11 10 11 10 6 3 3 4 6 5 3 3 4 2 6 4 2 2 3 2 2 4 5 5 4 3 4 7 8 8 9 10 10 10 10 10 10 10 8 8 9 8 8 7 8 8 5 7 4 2 6 8 8 8 13 15 9 9 10 7 6 9 13 16 18 18 17 18 19 20 21 21 21 20 20 21 20
8 6 5 6 6 5 6 8 9 11 11 10 11 13 11 6 3 3 4 5 4 3 2 4 6 3 1 0 1 2 1 2 4 4 5 5 4 6 8 7 8 10 10 8 9 12 10 8 9 7 8 9 10 10 10 12 12 8 3 5 5 4 6 8 8 12 14 10 10 12 8 7 11 11 13 18 19 17 18 20 20 20 21 21 20 20 21 20
8 7 5 5 6 5 6 7 9 11 10 9 12 15 12 6 3 3 1 6 11 8 6 1 6 7 2 3 4 1 1 3 6 5 4 5 6 8 9 8 9 11 10 7 8 11 10 7 8 9 10 11 13 14 14 15 14 10 7 5 6 6 3 6 8 9 8 8 8 9 6 8 11 10 9 14 18 16 16 19 19 20 20 21 21 21 21 20
8 7 6 5 5 5 6 7 8 10 8 6 11 13 11 10 6 4 7 7 8 4 5 4 5 6 4 3 2 3 5 6 7 6 5 7 8 7 8 9 9 8 9 12 9 10 10 8 9 11 13 14 14 15 15 15 14 10 9 5 4 7 4 6 12 10 6 4 4 6 6 8 11 11 8 9 13 15 17 19 19 21 21 20 21 21 21 20
7 7 6 5 5 5 6 7 8 8 6 5 9 12 10 10 9 9 12 8 1 1 2 1 4 4 2 5 6 4 8 7 6 6 6 8 10 8 8 8 9 7 9 13 9 7 8 8 11 13 13 15 15 15 16 15 13 10 7 6 5 7 7 7 14 16 9 4 4 7 6 6 9 10 8 6 5 6 10 15 17 20 21 20 19 21 22 20
7 7 6 5 5 5 6 7 7 4 4 5 8 11 9 8 9 10 11 11 3 1 3 2 5 2 2 4 2 6 11 8 6 9 7 8 11 10 7 7 9 9 9 11 9 6 7 8 12 14 12 15 17 15 14 12 10 9 6 9 5 9 11 5 10 15 9 2 5 8 4 2 5 6 6 5 2 4 6 6 10 15 18 20 19 20 23 22
7 7 6 5 5 5 6 5 4 3 6 8 8 8 8 8 10 11 12 13 6 2 2 1 3 4 5 4 4 7 9 4 5 10 9 9 11 7 7 9 8 10 10 11 13 10 8 9 13 15 14 15 17 13 11 10 9 8 10 12 3 8 11 8 10 10 7 4 7 8 3 1 4 5 6 5 5 1 8 9 8 10 12 17 20 18 21 22
6 6 5 4 5 5 5 5 5 8 11 12 6 5 8 9 9 10 11 10 5 3 4 3 0 5 3 1 5 4 7 6 4 8 8 11 11 4 5 9 7 9 11 12 12 9 9 11 13 16 14 14 14 12 12 11 8 7 12 15 10 2 9 17 16 10 5 4 7 8 4 1 4 7 7 6 5 5 9 10 8 9 11 15 21 20 20 22
6 6 5 4 4 5 7 6 5 8 10 7 2 5 8 8 9 10 10 7 2 5 6 3 1 4 2 4 4 4 6 4 2 5 4 10 10 8 6 7 7 9 9 6 7 5 9 13 9 10 13 14 15 12 10 9 7 8 8 9 13 8 10 17 15 11 4 4 10 11 5 2 3 8 9 9 8 8 9 8 9 11 13 16 21 21 21 22
6 5 6 5 4 6 9 8 6 8 9 4 4 8 8 9 11 9 7 5 2 2 2 3 3 3 1 2 4 6 1 2 2 1 4 7 8 10 8 6 6 7 7 5 6 4 10 16 9 9 12 12 12 9 7 7 8 7 3 3 9 10 6 10 8 7 5 5 10 12 10 5 4 9 12 11 10 8 8 7 9 12 13 13 18 21 22 22
5 5 6 5 5 5 7 8 7 10 11 8 7 9 8 11 11 7 7 2 4 1 1 5 4 4 2 2 5 5 3 1 2 2 2 6 9 11 9 7 7 8 6 7 6 7 12 15 8 8 12 8 7 7 9 10 10 8 7 7 10 14 7 10 8 5 6 5 7 12 14 7 1 5 10 11 10 9 10 9 9 12 13 14 18 20 22 22
5 5 6 6 5 5 5 6 7 9 9 8 10 9 10 12 8 5 6 2 2 1 1 3 2 2 4 4 5 4 5 6 1 2 2 6 9 10 9 8 10 10 10 8 9 5 6 7 5 5 9 6 6 9 12 12 11 11 11 8 8 12 8 8 7 5 4 6 6 9 11 6 0 4 7 8 9 11 12 10 11 16 18 18 20 20 21 23
5 5 6 6 6 5 6 6 6 8 8 10 12 11 13 11 6 6 3 1 0 2 1 2 2 2 4 7 5 2 5 8 2 1 6 5 8 9 10 9 10 12 8 10 12 10 10 5 6 6 8 9 10 11 13 14 13 12 9 6 7 9 6 3 6 5 5 6 8 8 9 7 4 5 8 8 9 13 12 10 12 16 19 20 20 20 20 22
5 6 7 7 8 7 9 8 5 8 8 11 13 13 13 7 5 7 2 2 1 2 2 3 2 1 5 6 4 2 3 5 5 4 6 3 6 7 8 8 5 8 5 5 9 10 11 8 7 5 9 10 12 12 11 12 15 12 6 5 6 6 5 4 5 6 6 6 6 7 8 9 6 4 10 11 10 13 14 12 12 15 20 22 21 22 22 21
6 7 8 7 9 9 11 9 5 8 10 12 14 12 9 5 5 6 1 0 3 3 4 2 4 3 3 5 4 1 4 2 6 6 5 2 4 5 7 6 2 5 5 6 7 8 10 7 6 4 10 12 11 10 8 9 13 10 5 6 6 6 6 6 6 6 7 7 5 5 7 7 2 3 11 15 13 15 17 16 17 20 22 23 23 26 25 22
6 8 8 7 9 9 9 7 6 10 12 11 12 10 6 4 4 4 1 2 1 4 5 3 4 4 3 3 1 2 3 2 2 6 6 1 3 4 7 4 2 6 4 6 7 8 8 7 7 8 9 12 13 8 8 9 10 9 6 6 6 5 7 7 7 6 7 7 7 7 6 3 2 2 9 14 13 16 19 20 22 25 26 26 28 31 29 26
7 7 6 7 9 8 7 6 7 10 11 10 11 8 6 6 3 3 4 6 6 2 3 2 4 4 1 2 2 3 2 3 3 5 5 3 3 3 5 4 5 7 4 5 7 5 7 8 10 10 8 12 13 13 10 9 9 9 7 9 8 7 7 6 6 5 5 7 7 9 5 1 3 3 7 11 13 16 18 20 22 24 25 25 29 32 30 28
5 4 5 7 7 6 6 7 7 8 9 10 9 6 6 6 3 5 6 6 5 6 2 4 4 7 4 1 4 3 2 3 6 6 1 1 2 1 4 3 4 5 3 3 4 5 10 7 10 13 9 11 13 15 12 7 8 9 8 10 9 8 6 6 7 6 7 7 4 6 3 3 4 6 7 7 9 13 15 17 21 23 23 22 25 30 29 27
3 2 5 6 6 5 6 7 7 7 9 9 7 6 5 2 4 7 6 5 7 9 6 1 3 6 2 1 2 5 5 3 6 3 1 2 1 2 2 2 2 6 3 1 4 3 8 8 4 10 9 12 14 15 11 7 5 5 8 10 10 9 9 7 7 9 8 6 4 4 5 7 5 6 8 8 8 10 11 14 17 20 23 23 24 27 28 27
3 5 6 6 7 6 6 7 8 8 10 9 6 7 6 3 4 6 5 6 7 4 7 5 2 3 2 0 2 2 4 2 4 2 1 2 2 1 4 1 3 9 6 2 3 2 4 9 1 6 9 13 14 13 13 13 11 5 6 8 10 11 10 7 6 7 7 5 6 6 7 9 6 4 8 11 10 10 10 12 13 14 19 23 23 24 27 27
7 9 10 9 6 5 7 8 8 10 10 8 8 9 6 3 5 6 6 6 8 5 5 5 3 3 3 3 2 0 2 1 1 2 0 1 1 4 9 3 4 5 6 2 4 1 1 6 4 5 10 9 9 7 10 14 17 13 7 4 6 9 7 6 6 6 7 6 6 7 6 6 3 4 9 11 11 11 11 11 12 12 14 18 21 23 24 25
8 11 11 9 5 5 8 8 8 11 9 7 7 4 2 1 3 5 7 6 7 5 5 5 2 2 3 4 1 1 1 0 1 1 2 0 2 2 7 5 1 2 3 4 7 3 1 4 3 7 11 6 6 7 8 9 13 15 11 7 7 6 6 7 6 5 6 6 6 6 5 3 2 3 9 11 10 10 10 9 9 11 13 15 19 22 21 24
9 12 9 11 7 5 7 8 10 11 7 8 8 2 1 3 2 2 5 7 6 4 4 7 4 1 3 4 3 2 4 3 2 1 2 1 1 1 4 6 7 7 7 6 8 4 3 3 2 5 8 5 6 7 8 8 9 10 9 8 8 6 4 5 6 7 7 6 5 5 1 3 2 1 6 8 6 8 10 9 7 10 14 14 16 20 22 25
11 11 6 12 7 4 8 10 10 9 8 8 7 1 4 6 4 2 1 4 6 3 3 6 4 2 2 3 4 3 1 2 0 1 0 1 2 2 4 4 8 9 8 7 6 2 2 2 4 5 6 6 3 2 9 13 10 9 9 7 7 5 5 5 6 8 7 6 6 5 1 3 2 3 2 7 8 8 9 11 8 10 16 15 13 16 20 24
12 7 5 10 5 5 9 10 9 11 7 3 1 3 4 3 7 5 1 3 4 1 3 4 2 3 4 2 4 4 3 2 1 2 1 1 3 2 5 4 8 7 8 7 4 9 8 4 4 6 6 8 12 14 14 15 13 12 10 8 8 7 7 8 6 5 6 6 8 8 2 3 2 3 4 4 12 11 12 13 9 10 12 11 13 16 18 21
12 7 4 7 6 7 10 9 9 9 3 4 3 1 5 3 7 3 2 3 2 0 4 3 1 2 5 2 3 5 3 2 2 3 4 1 1 3 3 5 8 8 7 5 6 10 8 4 3 6 7 7 11 14 15 15 14 13 11 11 10 9 10 9 6 5 6 6 7 7 3 3 5 1 5 4 14 13 13 13 10 7 6 8 13 17 18 20
15 16 6 8 7 9 11 8 6 7 3 3 3 2 2 3 6 4 6 4 2 2 5 5 2 1 2 1 3 4 2 1 3 4 5 2 3 3 1 5 8 8 5 6 6 8 5 3 3 5 5 5 6 8 9 11 9 7 7 9 11 12 13 11 7 6 7 8 8 5 0 2 3 2 2 2 11 11 8 8 9 4 3 6 11 16 18 19
16 16 7 6 5 10 12 9 7 10 6 3 3 5 5 5 3 4 7 6 4 5 5 3 3 3 3 2 3 3 2 2 2 3 5 2 2 3 1 3 7 5 9 9 9 8 4 3 4 4 4 3 3 4 6 7 6 5 8 12 13 14 11 9 8 5 4 9 9 4 2 4 3 4 3 2 7 10 5 2 4 4 2 4 9 12 15 16
12 9 5 8 8 11 13 13 12 11 4 2 3 4 5 5 5 3 6 7 3 4 5 2 1 3 4 3 3 3 3 1 1 3 4 3 1 2 3 4 9 2 8 7 6 6 5 4 5 6 5 4 3 5 9 10 9 8 9 10 8 6 6 7 5 2 2 5 3 6 7 4 4 4 5 3 4 11 10 5 2 4 3 4 6 8 11 13
10 7 5 4 5 8 12 13 12 8 3 0 2 3 4 4 3 4 5 4 1 4 5 3 3 3 3 4 2 2 4 3 5 6 6 4 4 4 3 5 6 2 2 6 7 5 5 5 6 8 8 7 7 8 8 10 12 10 10 11 12 11 9 9 6 3 3 4 1 9 12 6 3 3 5 4 3 7 11 10 7 5 4 6 8 8 9 11
9 9 11 7 3 7 7 7 10 8 4 3 1 1 4 6 2 4 5 2 1 4 4 2 4 5 5 4 2 2 3 4 5 7 7 5 5 6 3 8 12 7 5 8 6 3 4 6 7 9 9 9 10 9 7 8 10 11 9 8 8 9 9 8 9 9 6 6 6 4 9 8 4 3 5 4 2 5 10 14 14 12 10 10 9 7 8 9
10 13 13 10 7 8 5 4 5 9 6 4 1 1 4 6 5 3 1 2 3 2 1 3 3 4 5 4 2 1 3 2 2 2 3 4 5 6 4 7 11 14 8 4 4 2 2 4 7 10 10 8 10 9 7 7 9 10 8 6 7 8 9 8 9 9 9 10 11 9 4 8 6 5 5 4 5 7 8 11 11 11 15 17 11 6 5 6
9 11 12 15 13 12 12 5 3 6 3 3 2 4 5 6 5 0 2 5 4 2 1 7 4 2 5 3 1 3 3 3 1 1 2 3 2 2 1 0 6 10 6 4 3 1 0 3 5 7 8 8 9 10 9 8 6 7 8 8 9 9 6 7 7 8 10 10 11 12 3 5 4 4 4 4 4 6 6 7 6 5 13 21 17 10 6 5
10 10 11 13 9 9 12 7 4 5 3 4 5 5 4 6 4 1 3 3 5 4 3 5 3 1 3 3 3 4 3 3 3 3 1 5 4 1 3 2 3 5 6 4 3 1 2 4 4 5 6 6 7 9 9 7 5 7 9 6 9 11 8 3 4 10 11 12 11 10 4 2 2 3 2 1 3 6 8 9 7 6 8 16 19 15 11 12
13 10 9 10 8 8 9 6 6 6 4 4 5 6 5 7 4 1 1 2 6 8 4 6 5 1 4 3 1 2 4 3 6 6 5 7 7 5 6 5 5 5 5 5 4 3 4 4 4 4 5 5 8 8 6 6 7 6 5 4 9 11 9 2 8 12 12 13 9 4 4 4 3 4 4 2 8 12 12 13 11 7 5 7 13 14 12 14
Wind_Direction
16 15 14 12 9 5 3 0 357 355 352 350 346 337 331 330 335 337 336 335 334 334 335 339 341 340 338 334 330 326 317 301 290 274 262 245 229 242 251 252 252 253 252 249 236 233 246 245 248 253 249 253 248 253 265 261 269 274 270 270 302 45 123 225 205 173 139 146 156 158 169 152 135 150 150 140 133 132 138 133 136 141 135 132 133 136 138 138
14 14 14 13 9 6 3 1 358 356 355 355 352 345 339 335 340 343 341 338 337 339 341 344 343 337 334 330 330 325 311 296 279 271 266 256 248 252 257 254 246 240 240 234 223 228 242 243 244 246 247 254 248 243 257 267 276 280 290 295 355 39 217 232 208 164 149 151 150 158 172 158 139 145 149 142 138 143 143 138 139 133 127 129 135 138 139 141
11 11 11 11 9 5 1 359 357 355 358 359 357 353 349 349 351 351 347 345 345 346 347 348 345 338 334 331 327 320 313 304 287 278 269 264 261 253 251 251 241 233 235 222 219 232 242 252 259 254 250 255 253 241 244 253 279 304 313 310 3 351 219 214 191 160 147 146 143 153 172 158 142 147 150 147 142 145 148 147 139 131 131 136 140 142 142 143
8 8 8 8 6 3 0 357 353 353 358 2 3 1 4 10 7 1 354 352 354 352 352 351 347 340 336 330 323 322 318 304 286 242 243 284 294 260 244 243 233 227 223 195 213 243 249 258 268 265 261 264 258 244 249 258 270 339 353 330 335 346 83 95 151 141 134 139 138 144 163 152 145 152 153 149 142 143 153 147 139 137 140 142 143 145 145 146
6 6 6 5 4 2 359 356 351 351 358 4 8 13 23 28 22 14 6 6 4 358 355 352 351 343 337 333 320 321 317 309 108 143 269 297 302 267 235 233 222 216 206 181 217 251 249 254 265 263 258 264 263 248 258 278 281 19 19 356 358 27 93 114 118 123 128 129 129 145 154 146 148 152 153 153 142 140 146 141 141 143 144 144 146 147 147 149
5 6 4 5 3 2 360 356 353 352 1 9 15 27 35 37 33 26 23 20 10 3 360 355 354 344 339 331 313 317 297 311 74 231 292 312 293 255 221 218 206 203 191 189 234 248 242 249 258 255 248 253 262 262 274 277 286 55 46 27 39 66 103 122 124 129 133 121 130 157 147 142 145 146 153 150 132 139 143 141 144 144 145 146 146 147 149 150
5 5 4 5 5 6 4 1 360 360 8 16 24 35 38 41 39 37 38 31 20 11 2 354 352 345 343 326 308 298 258 274 11 243 313 339 302 227 210 203 193 198 187 203 241 238 237 245 246 250 252 252 253 262 286 280 269 124 90 69 73 86 104 121 132 134 127 117 138 163 143 139 140 142 150 138 131 144 148 144 144 144 146 146 147 149 149 150
4 4 5 7 8 12 11 11 13 13 17 22 30 35 37 41 41 45 43 29 21 7 360 355 350 345 336 323 309 284 253 264 12 296 306 329 311 216 203 194 188 196 192 211 237 234 238 241 244 250 248 261 287 274 275 280 270 145 105 96 90 87 102 121 125 121 123 131 154 166 143 128 124 129 133 132 138 148 149 147 144 145 148 148 151 150 148 151
2 4 6 8 13 17 19 22 24 26 26 26 29 31 33 38 42 43 34 26 23 12 4 353 348 344 327 330 314 287 252 65 6 306 300 311 302 229 197 187 187 192 200 222 236 235 238 238 244 252 259 285 306 290 243 260 273 114 114 111 109 103 105 118 110 100 113 127 142 145 131 115 119 125 126 136 144 145 149 149 146 149 151 152 153 150 151 154
360 4 6 11 17 21 25 26 28 30 29 28 27 27 30 32 32 26 23 27 26 16 4 350 348 340 324 329 301 285 97 59 347 319 304 302 289 225 185 183 194 196 209 230 235 233 236 240 249 262 273 282 285 286 249 249 275 108 113 99 105 120 126 124 105 99 111 95 111 132 124 120 134 136 132 146 149 147 150 150 150 153 153 154 154 152 154 155
359 3 6 12 19 22 26 26 27 27 26 28 24 23 24 19 14 8 8 9 6 4 356 349 343 327 329 315 282 287 72 346 319 4 279 285 264 209 173 183 202 204 216 232 234 234 236 243 263 274 276 284 278 276 234 255 323 95 101 81 79 100 115 119 111 125 134 93 119 130 122 128 163 168 143 151 155 153 154 151 153 156 154 156 154 153 157 156
359 3 6 13 19 22 24 25 26 23 20 19 16 17 13 3 358 351 348 341 341 342 342 343 335 323 329 288 264 290 17 322 310 234 232 197 201 199 182 197 207 209 221 234 232 235 239 244 263 268 275 308 296 277 247 268 233 108 105 85 76 73 86 127 137 151 135 122 169 142 125 132 154 143 145 155 161 160 157 153 155 156 157 157 153 155 160 155
359 3 6 11 18 21 24 25 26 22 18 12 8 5 356 351 346 339 335 332 331 329 333 337 328 324 318 293 278 324 336 298 253 204 202 195 201 204 209 212 209 213 225 242 244 237 238 243 258 265 274 287 283 295 317 281 206 123 122 127 127 110 191 233 213 158 128 159 185 173 133 137 128 141 153 160 165 166 159 155 158 157 159 158 153 159 161 156
357 2 4 9 15 20 23 24 24 22 17 11 6 357 349 346 339 337 333 326 322 319 328 330 323 336 296 282 338 322 238 192 212 195 199 204 204 209 213 210 207 217 228 244 260 246 237 245 257 268 270 268 276 292 282 254 247 147 138 146 154 164 186 213 220 156 138 181 192 187 137 152 139 149 161 164 171 173 162 159 162 158 160 157 156 163 160 159
354 358 0 3 9 15 19 18 17 14 11 9 6 359 352 352 350 349 336 326 321 316 329 342 350 349 282 250 354 347 184 179 195 189 199 192 199 211 204 204 206 219 227 235 263 250 237 249 251 258 260 253 260 275 261 233 238 190 160 168 185 170 147 195 237 192 160 173 195 214 162 154 152 159 165 169 176 179 168 163 164 161 161 158 160 166 160 163
350 353 355 356 358 7 13 10 8 5 4 4 2 356 352 359 6 3 356 344 337 330 321 356 1 332 300 278 55 1 176 187 181 174 197 195 211 207 190 201 207 215 219 221 261 254 233 249 247 250 256 249 241 244 250 239 224 203 202 201 183 159 151 176 218 225 213 162 190 242 183 151 161 165 168 173 179 184 173 168 167 162 163 161 164 167 161 165
348 348 347 348 345 350 359 2 3 1 360 359 354 348 343 341 347 7 12 348 342 341 287 150 360 298 283 287 229 206 163 162 164 178 202 219 241 196 182 200 205 210 214 218 247 251 231 237 242 247 247 245 243 236 237 244 230 203 210 214 173 158 160 162 166 204 209 185 188 216 192 162 165 166 171 178 183 185 176 173 171 165 166 164 168 168 161 167
346 342 340 343 339 333 339 347 354 354 354 351 341 337 329 313 320 347 339 328 322 291 260 180 210 276 254 259 228 161 129 180 194 198 197 221 242 196 190 200 199 202 212 221 229 232 226 221 229 237 230 229 237 238 231 239 256 226 195 201 185 162 153 152 156 175 185 190 194 199 196 172 162 168 174 179 188 190 182 177 173 171 170 166 171 170 162 170
341 337 337 337 334 329 328 333 343 347 349 343 336 336 325 294 249 267 297 314 280 264 307 194 220 289 16 358 89 100 74 168 194 202 204 221 213 198 201 200 200 203 211 214 204 211 213 209 222 229 225 222 220 235 243 244 272 300 237 202 208 192 142 148 156 158 171 194 201 194 191 173 167 175 179 179 187 194 187 181 177 175 173 170 175 169 164 174
333 334 330 330 335 330 326 331 337 344 346 341 342 335 325 321 254 216 285 258 247 275 327 276 258 298 339 98 94 89 213 191 214 215 213 222 204 201 205 202 204 208 219 217 188 198 212 217 220 221 225 225 220 230 244 251 270 300 285 237 186 175 147 145 140 137 170 202 198 189 183 184 180 181 195 185 184 194 193 187 182 178 177 177 178 169 167 176
326 327 324 329 332 323 328 334 334 343 342 338 347 330 323 354 355 340 335 259 226 279 331 19 311 304 3 10 312 262 203 202 221 211 202 209 213 210 194 203 211 204 222 228 206 191 210 230 225 222 227 231 231 230 239 250 256 267 277 286 155 163 181 142 126 132 195 217 182 194 189 192 190 184 211 208 187 192 192 189 186 181 181 183 180 170 169 175
318 320 319 324 326 322 325 330 336 347 344 328 338 320 315 356 353 335 325 290 211 350 260 12 274 219 74 300 276 242 213 208 194 186 198 206 220 217 182 203 224 209 212 223 221 190 203 235 233 226 226 233 240 234 237 245 251 260 264 270 245 165 148 134 129 142 183 222 176 195 192 191 195 184 203 232 216 202 190 193 197 188 181 186 185 171 170 176
314 316 315 317 319 318 317 331 340 351 15 357 334 320 324 352 336 332 321 289 275 320 237 299 300 177 102 292 215 212 231 224 180 173 185 214 226 225 212 221 229 225 213 211 223 211 206 224 231 236 226 227 239 236 238 243 244 253 245 258 253 147 152 155 136 142 158 186 159 168 175 206 208 190 199 214 213 317 305 256 220 202 187 187 189 176 172 179
314 309 308 313 309 310 315 330 340 348 0 344 325 324 340 347 327 336 328 287 259 49 58 6 343 48 17 351 131 207 236 249 224 173 168 223 222 208 231 241 233 234 223 209 221 230 235 217 212 232 232 224 236 236 235 240 235 239 245 261 282 139 163 146 124 130 140 147 139 140 133 293 236 209 208 182 136 272 280 269 239 219 210 196 193 184 177 180
309 303 303 306 298 296 305 315 331 339 325 306 304 334 339 339 325 332 326 286 244 127 125 153 14 67 44 97 140 226 255 256 238 150 158 226 230 217 239 238 231 237 228 210 218 231 248 238 208 214 228 226 234 235 224 227 233 235 236 250 272 234 131 125 133 138 141 165 152 153 165 250 239 227 217 173 141 191 222 241 238 214 222 210 194 189 184 182
304 300 295 289 288 287 304 313 315 327 311 285 330 346 337 333 318 327 318 278 203 135 150 160 56 89 128 176 169 252 255 233 103 105 187 226 244 283 276 237 223 241 251 215 217 242 246 253 235 210 226 224 225 236 227 220 236 238 223 237 263 254 132 132 152 154 156 190 170 176 188 169 212 230 220 176 168 203 199 217 229 206 213 212 196 191 189 186
301 295 286 278 277 280 304 303 269 310 332 20 20 337 338 324 312 328 303 255 109 95 153 106 55 29 68 166 233 256 285 71 98 114 254 227 234 262 258 244 232 242 276 258 220 222 237 249 234 210 241 232 218 230 218 209 225 241 283 339 298 282 185 166 189 183 190 179 164 184 200 201 201 207 202 175 172 203 196 201 222 214 212 208 201 196 191 188
300 289 279 271 272 277 306 303 280 306 334 10 352 327 331 319 318 324 289 292 62 327 350 75 51 319 269 169 246 258 77 80 210 143 261 245 229 244 251 257 255 226 234 271 246 180 217 238 203 203 250 233 202 221 214 221 233 247 292 315 313 308 263 202 221 233 217 199 174 190 203 221 234 164 177 169 171 201 207 205 210 214 212 203 206 202 193 191
301 284 274 265 269 283 294 295 303 311 325 343 329 323 320 309 312 287 263 331 30 251 47 81 130 216 225 210 232 238 185 196 243 69 224 251 236 249 276 285 288 257 214 235 253 205 229 246 161 197 256 234 211 219 210 223 242 252 275 279 281 295 273 215 234 261 248 240 223 200 201 219 247 143 166 168 180 200 206 205 200 206 209 201 202 204 196 194
299 276 268 257 248 264 264 266 326 336 326 322 319 322 311 293 281 268 258 46 30 121 109 233 148 149 225 224 199 160 207 195 125 219 210 245 235 233 263 268 287 282 224 205 241 270 297 278 170 203 241 234 238 234 213 216 234 245 265 283 276 278 281 268 272 287 287 257 239 225 211 213 213 172 177 188 193 191 189 194 197 201 206 201 201 205 203 198
295 268 260 251 236 245 259 263 339 345 311 313 324 320 299 277 255 271 325 32 236 120 205 216 98 271 250 252 217 125 250 193 124 198 203 220 216 205 241 242 264 285 261 227 241 253 258 221 162 221 250 239 238 236 220 218 230 232 240 266 264 253 250 248 247 255 264 255 240 239 233 229 236 185 186 200 196 185 184 188 190 195 202 200 200 204 206 203
286 266 257 247 231 237 258 272 331 327 304 317 325 310 290 272 254 262 58 154 249 30 11 41 48 322 287 273 254 318 298 185 143 197 205 228 216 196 226 217 215 262 253 255 228 207 232 219 149 209 248 248 244 225 204 221 233 222 216 248 247 235 229 224 223 230 244 248 231 237 250 239 236 138 183 193 192 189 189 188 185 189 194 194 196 201 204 206
281 267 255 240 231 233 257 280 308 307 312 323 309 290 284 293 293 289 360 75 50 8 342 346 355 333 333 290 236 360 314 103 143 214 185 239 268 225 239 237 290 286 285 277 242 190 207 221 196 207 223 234 247 238 200 206 216 203 204 228 232 240 233 221 222 225 241 247 219 210 234 218 124 121 183 185 187 190 189 188 187 189 190 189 194 200 203 205
280 267 251 235 233 235 254 274 289 298 311 311 290 275 271 280 304 309 329 53 62 305 256 7 326 283 273 348 13 320 280 76 348 262 179 211 246 216 253 230 227 265 276 274 272 235 230 222 198 205 204 199 224 249 241 218 200 194 218 233 230 240 244 241 235 221 239 249 212 193 208 185 131 157 184 183 182 183 185 187 186 189 189 187 192 198 201 205
282 267 246 234 233 250 275 285 293 296 300 295 283 273 275 285 348 4 359 29 6 318 31 82 302 260 198 69 3 3 16 19 309 289 203 251 225 157 298 248 205 259 261 251 308 303 280 268 176 186 201 179 205 249 261 248 210 185 203 231 236 240 247 267 276 277 282 282 238 188 151 78 111 136 153 171 170 165 169 175 178 183 185 183 190 197 201 207
285 263 232 226 241 272 287 285 284 279 279 282 278 279 285 303 360 2 8 347 332 343 352 46 282 279 230 44 355 80 82 344 307 321 46 294 247 127 297 321 6 318 290 274 323 296 290 308 144 173 204 180 197 239 251 254 246 178 188 215 230 249 260 263 267 276 283 289 270 216 130 113 132 131 138 156 158 155 157 163 169 177 180 181 188 195 198 204
225 240 235 232 241 243 247 256 259 259 266 276 281 293 318 31 11 347 5 331 319 326 302 307 348 296 281 326 272 105 90 12 335 5 127 263 288 313 292 3 31 310 302 23 310 267 306 314 277 181 213 185 186 224 236 243 259 243 201 202 205 229 257 272 267 258 252 256 253 223 154 143 160 144 155 170 168 167 168 162 159 168 180 183 186 193 197 199
216 243 247 235 225 216 234 253 258 260 264 267 259 257 276 7 20 358 2 322 300 288 286 317 4 288 313 9 282 264 76 99 331 333 249 189 191 304 307 347 100 296 307 342 292 263 284 290 269 230 235 188 165 223 237 237 248 256 271 277 223 214 225 245 266 266 249 252 254 224 172 150 158 155 166 174 173 173 172 164 157 167 185 187 185 192 196 197
228 257 248 212 191 211 237 249 255 260 260 265 272 248 223 328 40 3 342 313 293 305 311 320 340 254 321 358 299 297 14 182 127 330 276 8 83 318 313 336 81 282 319 310 295 306 243 258 253 245 244 201 163 221 232 218 230 248 269 282 255 229 209 210 225 252 257 267 268 238 189 126 66 144 164 175 182 167 155 160 165 174 190 191 185 188 195 197
241 261 230 177 177 213 231 243 250 255 250 251 271 326 19 320 51 33 333 322 301 293 321 332 351 348 334 331 316 3 357 335 63 129 249 330 39 324 346 352 334 335 347 310 286 286 251 241 263 272 266 241 187 202 230 223 209 221 238 247 241 222 206 215 214 221 245 270 281 275 181 96 19 297 156 160 151 111 125 162 182 188 193 192 187 188 195 199
267 268 201 163 177 214 224 238 240 242 250 254 254 271 5 332 337 348 297 299 294 274 297 317 319 311 313 319 345 17 341 303 283 192 326 120 241 318 44 358 323 333 333 293 274 320 343 308 324 315 284 263 262 285 262 248 228 213 214 232 250 228 203 232 228 209 220 248 268 282 55 97 349 328 99 114 106 98 131 163 189 205 198 195 195 193 194 198
266 261 152 157 189 206 217 240 246 242 258 326 329 106 78 318 294 307 262 236 278 239 231 275 309 341 335 2 2 329 268 284 245 237 24 128 231 23 63 341 311 311 305 300 355 17 356 312 302 296 276 292 319 319 290 262 246 231 217 218 240 241 223 230 234 219 221 229 244 262 254 116 71 325 317 81 110 135 159 159 180 210 200 201 204 197 193 194
260 263 153 165 208 214 226 251 257 246 232 55 340 70 107 226 261 302 339 268 278 283 271 287 80 354 329 343 331 311 313 349 311 308 337 275 194 61 51 333 313 296 297 316 11 10 343 295 282 287 285 300 300 290 280 267 247 227 218 214 222 245 254 247 242 243 242 225 225 245 246 128 104 79 311 46 110 146 175 157 160 194 193 199 199 191 191 190
275 277 235 176 204 219 235 257 266 275 273 141 256 284 105 283 285 323 342 327 344 338 316 342 41 226 285 315 302 309 332 296 274 300 301 263 106 84 324 312 308 308 359 25 2 351 339 321 315 288 292 300 276 268 271 270 258 234 232 229 223 236 252 258 256 254 257 262 272 283 205 105 94 121 301 72 126 155 184 142 125 147 186 177 175 174 175 173
284 277 226 172 208 220 238 263 276 288 297 148 211 240 216 228 244 286 301 298 319 332 330 351 337 286 297 307 277 283 287 275 289 293 283 275 108 123 109 324 296 320 40 34 345 325 305 307 311 284 293 302 272 274 278 285 300 276 244 239 230 223 233 256 256 249 267 275 287 328 91 131 138 141 126 127 140 137 147 148 99 76 48 136 159 168 161 156
283 275 198 176 190 210 237 258 265 276 295 136 205 234 229 215 157 173 267 254 245 282 286 300 279 266 296 294 260 277 290 300 58 332 320 336 334 103 78 304 278 328 44 10 316 300 287 284 276 267 274 273 253 269 279 284 285 268 256 269 280 279 301 311 277 225 356 305 301 55 70 106 125 123 114 107 119 121 137 192 169 95 77 98 129 152 148 147
269 291 284 229 190 214 235 240 247 274 334 98 188 163 217 249 136 147 223 242 291 277 274 303 291 268 293 298 306 340 321 340 37 11 348 358 348 357 26 312 300 73 50 274 243 235 273 278 268 263 254 247 247 250 260 268 271 281 301 320 341 341 319 308 286 260 359 323 293 78 76 91 114 119 120 111 86 110 130 155 170 160 132 119 129 143 145 146
258 280 288 290 231 214 224 228 233 239 222 206 199 142 234 264 256 194 200 191 264 245 228 229 255 270 287 298 356 37 301 311 42 20 335 336 349 331 351 1 343 322 271 263 246 236 281 283 282 280 265 251 250 246 241 254 267 282 294 304 329 328 311 301 288 283 303 289 278 26 67 91 96 88 98 84 56 93 113 133 159 177 160 137 137 148 154 153
273 283 290 308 288 247 276 323 254 243 224 178 131 275 249 251 241 213 186 271 238 197 267 289 276 280 294 318 12 327 292 303 76 50 314 307 342 336 11 23 324 295 293 317 312 328 318 281 280 289 291 277 261 257 244 234 251 273 291 303 305 312 323 314 293 299 308 287 282 306 29 84 70 72 88 52 53 82 96 120 145 165 151 136 130 146 176 177
290 306 315 326 317 286 284 284 225 263 274 118 157 251 249 257 262 157 146 251 275 63 260 271 273 280 304 345 353 287 23 62 245 210 205 247 313 354 13 81 272 281 312 340 307 51 105 273 279 287 291 279 263 261 246 227 241 271 289 303 293 286 297 301 308 339 333 311 303 303 312 88 37 21 70 52 68 94 91 99 97 91 122 129 132 144 150 143
322 318 309 311 308 291 288 275 230 249 220 168 209 221 225 248 273 23 146 207 295 317 270 281 296 217 285 302 266 292 37 84 276 298 279 283 307 201 224 247 269 295 324 327 319 339 275 283 293 278 274 274 265 257 243 236 249 254 252 273 300 293 274 257 33 24 353 327 314 302 301 90 9 341 31 55 76 67 47 47 51 43 92 121 133 140 134 122
342 324 310 298 280 275 276 258 242 239 226 243 220 169 204 231 192 111 211 195 270 276 301 346 345 279 256 263 261 358 28 356 316 330 318 295 297 273 265 282 283 288 316 321 316 307 284 290 294 282 285 283 272 266 252 243 243 244 260 333 2 341 310 314 65 47 7 335 316 304 348 18 18 344 327 29 55 50 33 18 19 25 41 89 114 123 120 111